Flag for Canada Weather past 2 weeks in Yorkton, Saskatchewan, Canada

5 °F


Feels Like: -7 °F
Forecast: 4 / 26 °F
Wind: 7 mph from Southwest

Location: Yorkton

Current Time: Nov 26, 2015 at 8:56:42 PM

Latest Report: Nov 26, 2015 at 8:00 PM

Visibility: 9 mi

Pressure: 30.63 "Hg (28.65 "Hg at 505m altitude)

Humidity: 92%

Dew point: 3 °F

Location of YorktonLocation

Historic Weather in Yorkton — Graph


Yorkton temperature yesterday

Maximum temperature yesterday: 23 °F (at 12:00 AM)
Minimum temperature yesterday: 7 °F (at 7:00 PM)
Average temperature yesterday: 15 °F

Past Weeks' High & Low Weather Summary

High50 °F (Nov 15, 2:00 PM)100% (Nov 11, 9:00 PM)30.64 "Hg (Nov 11, 9:00 PM)
Low5 °F (Nov 20, 5:00 AM)52% (Nov 17, 4:00 PM)29.00 "Hg (Nov 18, 7:00 AM)
Average26 °F85%29.89 "Hg
* Reported Nov 11 7:00 PM — Nov 26 7:00 PM, Yorkton, Weather by CustomWeather, © 2015

Note: Actual official high and low records may vary slightly from our data, if they occured in-between our weather recording intervals... More about our weather records


Yorkton weather history for previous 24 hours

Time TempWeatherWind HumidityBarometerVisibility
7:00 PM
Thu, Nov 26
5 °FClear.5 mph92%30.64 "Hg9 mi
6:00 PM9 °FClear.3 mph85%30.64 "Hg9 mi
5:00 PM9 °FClear.3 mph85%30.64 "Hg9 mi
4:00 PM12 °FPassing clouds.6 mph73%30.63 "Hg9 mi
3:00 PM14 °FOvercast.5 mph73%30.61 "Hg9 mi
2:00 PM14 °FLight snow. Partly sunny.7 mph73%30.62 "Hg9 mi
1:00 PM14 °FLight snow. Overcast.3 mph73%30.61 "Hg9 mi
12:54 PM14 °FLight snow. Partly sunny.2 mph73%30.61 "Hg9 mi
12:00 PM14 °FLight snow. Overcast.6 mph79%30.61 "Hg9 mi
11:58 AM14 °FLight snow. Overcast.6 mph79%30.61 "Hg9 mi
11:00 AM12 °FLight snow. Overcast.6 mph85%30.61 "Hg9 mi
10:52 AM12 °FLight snow. Overcast.6 mph85%30.62 "Hg6 mi
10:04 AM12 °FLight snow. Overcast.5 mph85%30.61 "Hg5 mi
9:00 AM12 °FLight snow. Overcast.6 mph85%30.59 "Hg9 mi
8:00 AM12 °FOvercast.5 mph79%30.56 "Hg9 mi
7:00 AM10 °FOvercast.3 mph85%30.54 "Hg9 mi
6:00 AM10 °FOvercast.5 mph85%30.51 "Hg9 mi
5:00 AM10 °FOvercast.6 mph85%30.50 "Hg9 mi
4:00 AM10 °FOvercast.6 mph79%30.49 "Hg9 mi
3:00 AM10 °FLight snow. Overcast.2 mph79%30.49 "Hg9 mi
2:59 AM10 °FLight snow. Overcast.2 mph79%30.49 "Hg9 mi
2:00 AM10 °FOvercast.2 mph79%30.48 "Hg9 mi
1:00 AM10 °FLight snow. Overcast.9 mph79%30.49 "Hg9 mi
12:00 AM10 °FLight snow. Overcast.6 mph79%30.49 "Hg9 mi
11:00 PM
Wed, Nov 25
10 °FLight snow. Overcast.8 mph79%30.46 "Hg9 mi
10:00 PM10 °FLight snow. Overcast.5 mph85%30.44 "Hg9 mi
9:00 PM9 °FOvercast.7 mph92%30.43 "Hg9 mi
8:00 PM10 °FLight snow. Overcast.10 mph85%30.42 "Hg9 mi
Weather by CustomWeather, © 2015

See weather overviewHow to use our weather pages